Billings, MT

1:43 AM MST on February 25, 2018 (GMT -0700)
Billings Logan International

Weather History for KBIL - February, 2012

Change the Weather History Date:

Sunday, February 26, 2012

  Actual Average Record
Temperature  
Mean Temperature 21 °F 33 °F  
Max Temperature 28 °F 43 °F 67 °F (1950)
Min Temperature 14 °F 22 °F -14 °F (1962)
Degree Days  
Heating Degree Days 44 32  
Month to date heating degree days 889 905  
Since 1 July heating degree days 4392 4901  
Cooling Degree Days 0 0  
Month to date cooling degree days 0 0  
Year to date cooling degree days 0 0  
Moisture  
Dew Point 12 °F    
Average Humidity 70    
Maximum Humidity 84    
Minimum Humidity 55    
Precipitation  
Precipitation 0.03 in 0.02 in 0.23 in (1995)
Month to date precipitation 0.21 0.44  
Year to date precipitation 0.82 0.92  
Snow  
Snow 0.50 in 0.30 in 5.60 in (1995)
Month to date snowfall 3.5 5.7  
Since 1 July snowfall 28.4 34.0  
Snow Depth 0.00 in    
Sea Level Pressure  
Sea Level Pressure 30.09 in    
Wind  
Wind Speed 11 mph (NE)    
Max Wind Speed 25 mph    
Max Gust Speed 30 mph    
Visibility 8 miles    
Events Snow    
T = Trace of Precipitation, MM = Missing Value Source: NWS Daily Summary

Daily Weather History Graph

Daily Weather History Graph

Search for Another Location

Airport or City:

Trip Planner

Search our weather history database for the weather conditions in past years. The results will help you decide how hot, cold, wet, or windy it might be!

Date:

Astronomy

Feb. 26, 2012 Rise Set
Actual Time 6:58 AM MST 5:56 PM MST
Civil Twilight 6:28 AM MST 6:26 PM MST
Nautical Twilight 5:54 AM MST 7:00 PM MST
Astronomical Twilight 5:19 AM MST 7:35 PM MST
Moon 8:37 AM MST (2/26) 11:16 PM MST (2/26)
Length of Visible Light 11h 57m
Length of Day
10h 57m
Waxing Crescent, 21% of the Moon is Illuminated
Feb 26
Waxing Crescent
Feb 29
First Quarter
Mar 8
Full
Mar 14
Last Quarter
Mar 22
New

Hourly Weather History & Observations

Time (MST) Temp. Windchill Dew Point Humidity Pressure Visibility Wind Dir Wind Speed Gust Speed Precip Events Conditions
12:53 AM 27.0 °F 15.6 °F 15.1 °F 61% 29.80 in 10.0 mi NW 13.8 mph - N/A   Overcast
1:53 AM 26.1 °F 12.0 °F 14.0 °F 60% 29.84 in 10.0 mi NW 20.7 mph - N/A   Overcast
2:53 AM 24.8 °F 10.7 °F 12.2 °F 59% 29.79 in 10.0 mi NW 19.6 mph 27.6 mph N/A   Overcast
3:53 AM 24.1 °F 10.6 °F 12.0 °F 60% 29.90 in 10.0 mi NW 17.3 mph - N/A   Overcast
4:53 AM 23.0 °F 8.7 °F 10.0 °F 58% 29.96 in 10.0 mi NNW 18.4 mph - N/A   Overcast
5:53 AM 23.0 °F 9.2 °F 10.4 °F 59% 29.88 in 7.0 mi NNW 17.3 mph - N/A Snow Light Snow
6:53 AM 21.0 °F 7.1 °F 12.9 °F 71% 30.01 in 2.5 mi North 16.1 mph - 0.00 in Snow Light Snow
7:44 AM 19.4 °F 10.4 °F 15.8 °F 86% 29.94 in 1.2 mi NE 6.9 mph - 0.01 in Snow Light Snow
7:53 AM 19.0 °F 10.0 °F 16.0 °F 88% 30.06 in 1.2 mi NE 6.9 mph - 0.01 in Snow Light Snow
8:53 AM 19.9 °F 13.4 °F 15.1 °F 81% 30.10 in 1.2 mi East 4.6 mph - 0.01 in Snow Light Snow
9:15 AM 19.4 °F 9.5 °F 12.2 °F 74% 30.00 in 2.0 mi NE 8.1 mph - 0.01 in Snow Light Snow
9:39 AM 21.2 °F 12.6 °F 12.2 °F 68% 30.01 in 3.0 mi NE 6.9 mph - 0.01 in Snow Light Snow
9:53 AM 21.0 °F 12.4 °F 12.0 °F 68% 30.12 in 9.0 mi NNE 6.9 mph - 0.01 in Snow Light Snow
10:53 AM 21.9 °F 15.7 °F 10.9 °F 63% 30.14 in 9.0 mi NE 4.6 mph - 0.00 in   Overcast
11:53 AM 24.1 °F 13.7 °F 10.9 °F 57% 30.15 in 10.0 mi NE 10.4 mph - N/A   Mostly Cloudy
12:53 PM 24.1 °F 14.4 °F 12.0 °F 60% 30.15 in 10.0 mi East 9.2 mph - N/A   Scattered Clouds
1:53 PM 26.1 °F 15.6 °F 12.0 °F 55% 30.15 in 10.0 mi NE 11.5 mph - N/A   Partly Cloudy
2:53 PM 26.1 °F 16.2 °F 12.9 °F 58% 30.16 in 10.0 mi ENE 10.4 mph - N/A   Partly Cloudy
3:53 PM 25.0 °F 13.6 °F 12.0 °F 58% 30.18 in 10.0 mi ENE 12.7 mph - N/A   Partly Cloudy
4:53 PM 24.1 °F 13.7 °F 12.9 °F 62% 30.20 in 10.0 mi East 10.4 mph - N/A   Partly Cloudy
5:53 PM 21.0 °F 9.3 °F 12.9 °F 71% 30.22 in 10.0 mi ESE 11.5 mph - N/A   Partly Cloudy
6:53 PM 19.9 °F 9.3 °F 12.0 °F 71% 30.24 in 10.0 mi East 9.2 mph - N/A   Scattered Clouds
7:53 PM 19.0 °F 10.0 °F 12.0 °F 74% 30.26 in 10.0 mi East 6.9 mph - N/A   Clear
8:53 PM 18.0 °F 9.8 °F 10.9 °F 74% 30.27 in 10.0 mi ENE 5.8 mph - N/A   Scattered Clouds
9:53 PM 17.1 °F 10.0 °F 12.0 °F 81% 30.26 in 10.0 mi NE 4.6 mph - N/A   Partly Cloudy
10:53 PM 15.1 °F 6.4 °F 10.9 °F 84% 30.27 in 10.0 mi NNE 5.8 mph - N/A   Clear
11:53 PM 14.0 °F 3.9 °F 10.9 °F 88% 30.26 in 10.0 mi NNE 6.9 mph - N/A   Scattered Clouds